Погода в Палолеме

Индия     14°50′37″N   74°05′55″E
темп.,
°C
ветер,
м/с
пор.,
м/с
влажн.,
%
обл.,
%
осадки,
мм/ч
давл.,
гПа
погр.,
м
16 апреля, пт
пт1623:30+29сз55754 0.0 1010880
02:30+29сз447547 0.2 1009873
05:30+29сз337213 0.4 1009797
08:30+29сз44742 0.0 1012760
11:30+29зсз54770 0.0 1011498
14:30+29з88755 0.0 1008511
17:30+30сз77710 0.0 1008742
20:30+30сз77703 0.0 1010804
17 апреля, сб
сб1723:30+30ссз77700 0.0 1010871
02:30+29ссз56671 0.0 1008747
05:30+28ссз67710 0.0 1009627
08:30+28ссз56720 0.0 1012553
11:30+29зсз45710 0.0 1012557
14:30+29з66680 0.0 1009640
17:30+29зсз66690 0.0 1009791
20:30+29сз77690 0.0 1011867
18 апреля, вс
вс1823:30+29ссз56690 0.0 1012873
02:30+29сз55715 0.0 1010872
05:30+28ссз34739 0.0 1011691
08:30+28с227412 0.0 1013525
11:30+29зсз347411 0.0 1013735
14:30+29з55734 0.0 1010714
17:30+29зсз557348 0.0 1009978
20:30+29сз567297 0.1 10111038
19 апреля, пн
пн1923:30+29зсз447211 0.1 1012846
02:30+29зсз447369 0.0 1010777
05:30+29зсз447199 0.1 1011830
08:30+29сз3470100 0.1 1013656
11:30+29зсз44678 0.1 1012916
14:30+29зсз65725 0.0 1009715
17:30+29зсз77739 0.0 1008993
20:30+29зсз677298 0.0 1010985
20 апреля, вт
вт2023:30+29зсз66724 0.1 10111080
02:30+29сз666983 0.1 10081255
05:30+29сз78695 0.1 10091286
08:30+29ссз44705 0.0 1011819
11:30+29зсз44693 0.0 1011766
14:30+29зсз77701 0.0 1008677
17:30+29зсз88705 0.0 1007834
20:30+29сз89704 0.0 1009999